Location: Unspecified
(18.1500°N, 0.0000°E)
Time: 18:03:24
(UTC+00:00)

ISS - Visible Passes

Search period start: 21 April 2019 00:00
Search period end: 01 May 2019 00:00
Orbit: 408 x 410 km, 51.6° (Epoch: 22 April)

Date Brightness Start Highest point End Pass type
(mag) Time Alt. Az. Time Alt. Az. Time Alt. Az.
22 Apr -2.3 05:09:50 10° SSW 05:12:53 36° SE 05:15:57 10° ENE visible
23 Apr -1.1 04:20:11 10° SSE 04:22:12 15° SE 04:24:14 10° E visible
24 Apr -3.4 05:04:34 10° SW 05:07:45 47° NW 05:10:57 10° NNE visible
25 Apr -3.5 04:16:24 50° S 04:16:58 62° SE 04:20:13 10° NE visible
26 Apr -0.7 03:28:06 15° E 03:28:06 15° E 03:28:56 10° ENE visible
26 Apr -1.6 05:00:57 10° W 05:02:43 14° NW 05:04:29 10° NNW visible
27 Apr -2.4 04:12:26 27° NNW 04:12:26 27° NNW 04:14:44 10° NNE visible
28 Apr -0.5 03:23:54 12° NE 03:23:54 12° NE 03:24:14 10° NE visible
